Time,TemperatureF,DewpointF,PressureIn,WindDirection,WindDirectionDegrees,WindSpeedMPH,WindSpeedGustMPH,Humidity,HourlyPrecipIn,Conditions,Clouds,dailyrainin,SoftwareType,DateUTC
2013-01-08 00:53:00,47.0,44.0,30.16,SE,146,0.0,-999.0,88,-99.99,,,-99.99,,2013-01-08 08:53:00,
2013-01-08 01:02:00,47.0,44.0,30.16,South,178,0.0,-999.0,88,-99.99,,,-99.99,,2013-01-08 09:02:00,
2013-01-08 01:12:00,47.0,44.0,30.16,South,178,0.0,-999.0,88,-99.99,,,-99.99,,2013-01-08 09:12:00,
2013-01-08 01:22:00,47.0,44.0,30.15,SSW,201,0.0,-999.0,89,-99.99,,,-99.99,,2013-01-08 09:22:00,
2013-01-08 01:32:00,47.0,44.0,30.15,SSW,203,0.0,-999.0,89,-99.99,,,-99.99,,2013-01-08 09:32:00,
2013-01-08 01:42:00,47.0,44.0,30.15,SSW,203,0.0,-999.0,89,-99.99,,,-99.99,,2013-01-08 09:42:00,
2013-01-08 01:52:00,47.0,44.0,30.15,South,190,0.0,-999.0,88,-99.99,,,-99.99,,2013-01-08 09:52:00,
2013-01-08 02:02:00,47.0,44.0,30.15,SW,223,1.0,-999.0,88,-99.99,,,-99.99,,2013-01-08 10:02:00,
2013-01-08 02:12:00,47.0,44.0,30.15,SW,223,1.0,-999.0,88,-99.99,,,-99.99,,2013-01-08 10:12:00,
2013-01-08 02:22:00,47.0,44.0,30.14,SSE,157,0.0,-999.0,88,-99.99,,,-99.99,,2013-01-08 10:22:00,
2013-01-08 02:32:00,47.0,44.0,30.14,SSW,212,1.0,-999.0,88,-99.99,,,-99.99,,2013-01-08 10:32:00,
2013-01-08 02:42:00,47.0,44.0,30.14,SSW,212,1.0,-999.0,88,-99.99,,,-99.99,,2013-01-08 10:42:00,
2013-01-08 02:52:00,47.0,45.0,30.15,SSW,213,1.0,-999.0,92,-99.99,,,-99.99,,2013-01-08 10:52:00,
2013-01-08 03:02:00,47.0,44.0,30.15,SE,132,0.0,-999.0,88,-99.99,,,-99.99,,2013-01-08 11:02:00,
2013-01-08 03:12:00,47.0,44.0,30.15,SE,132,0.0,-999.0,88,-99.99,,,-99.99,,2013-01-08 11:12:00,
2013-01-08 03:22:00,47.0,44.0,30.15,South,185,0.0,-999.0,89,-99.99,,,-99.99,,2013-01-08 11:22:00,
2013-01-08 03:32:00,46.0,43.0,30.15,SSE,147,0.0,-999.0,89,-99.99,,,-99.99,,2013-01-08 11:32:00,
2013-01-08 03:42:00,46.0,43.0,30.15,SSE,147,0.0,-999.0,89,-99.99,,,-99.99,,2013-01-08 11:42:00,
2013-01-08 03:53:00,46.0,43.0,30.14,South,190,0.0,-999.0,89,-99.99,,,-99.99,,2013-01-08 11:53:00,
2013-01-08 04:02:00,46.0,43.0,30.14,SSE,157,0.0,-999.0,89,-99.99,,,-99.99,,2013-01-08 12:02:00,
2013-01-08 04:12:00,46.0,43.0,30.14,SSE,157,0.0,-999.0,89,-99.99,,,-99.99,,2013-01-08 12:12:00,
2013-01-08 04:22:00,46.0,43.0,30.13,SSE,157,0.0,-999.0,90,-99.99,,,-99.99,,2013-01-08 12:22:00,
2013-01-08 04:32:00,46.0,43.0,30.14,SSE,157,0.0,-999.0,90,-99.99,,,-99.99,,2013-01-08 12:32:00,
2013-01-08 04:42:00,46.0,43.0,30.14,SSE,157,0.0,-999.0,90,-99.99,,,-99.99,,2013-01-08 12:42:00,
2013-01-08 04:53:00,46.0,44.0,30.14,SE,138,0.0,-999.0,91,-99.99,,,-99.99,,2013-01-08 12:53:00,
2013-01-08 05:02:00,46.0,44.0,30.13,SE,127,0.0,-999.0,91,-99.99,,,-99.99,,2013-01-08 13:02:00,
2013-01-08 05:12:00,46.0,44.0,30.13,SE,127,0.0,-999.0,91,-99.99,,,-99.99,,2013-01-08 13:12:00,
2013-01-08 05:22:00,46.0,44.0,30.12,ESE,104,0.0,-999.0,91,-99.99,,,-99.99,,2013-01-08 13:22:00,
2013-01-08 05:32:00,46.0,44.0,30.12,ESE,104,0.0,-999.0,91,-99.99,,,-99.99,,2013-01-08 13:32:00,
2013-01-08 05:42:00,46.0,44.0,30.12,ESE,104,0.0,-999.0,91,-99.99,,,-99.99,,2013-01-08 13:42:00,
2013-01-08 05:53:00,46.0,44.0,30.11,ESE,104,0.0,-999.0,91,-99.99,,,-99.99,,2013-01-08 13:53:00,
2013-01-08 06:02:00,46.0,44.0,30.11,ESE,105,0.0,-999.0,92,-99.99,,,-99.99,,2013-01-08 14:02:00,
2013-01-08 06:12:00,46.0,44.0,30.11,ESE,105,0.0,-999.0,92,-99.99,,,-99.99,,2013-01-08 14:12:00,
2013-01-08 06:22:00,46.0,44.0,30.11,ESE,106,0.0,-999.0,92,-99.99,,,-99.99,,2013-01-08 14:22:00,
2013-01-08 06:32:00,45.0,43.0,30.10,South,169,0.0,-999.0,92,-99.99,,,-99.99,,2013-01-08 14:32:00,
2013-01-08 06:42:00,45.0,43.0,30.10,South,169,0.0,-999.0,92,-99.99,,,-99.99,,2013-01-08 14:42:00,
2013-01-08 06:53:00,44.0,42.0,30.09,South,169,0.0,-999.0,93,-99.99,,,-99.99,,2013-01-08 14:53:00,
2013-01-08 07:02:00,44.0,42.0,30.08,South,169,0.0,-999.0,93,-99.99,,,-99.99,,2013-01-08 15:02:00,
2013-01-08 07:12:00,44.0,42.0,30.08,South,169,0.0,-999.0,93,-99.99,,,-99.99,,2013-01-08 15:12:00,
2013-01-08 07:22:00,44.0,42.0,30.06,South,169,0.0,-999.0,93,-99.99,,,-99.99,,2013-01-08 15:22:00,
2013-01-08 07:32:00,44.0,42.0,30.06,South,169,0.0,-999.0,93,-99.99,,,-99.99,,2013-01-08 15:32:00,
2013-01-08 07:42:00,44.0,42.0,30.06,South,169,0.0,-999.0,93,-99.99,,,-99.99,,2013-01-08 15:42:00,
2013-01-08 07:53:00,43.0,41.0,30.06,SW,221,0.0,-999.0,94,-99.99,,,-99.99,,2013-01-08 15:53:00,
2013-01-08 08:02:00,43.0,41.0,30.06,SW,221,0.0,-999.0,94,-99.99,,,-99.99,,2013-01-08 16:02:00,
2013-01-08 08:12:00,43.0,41.0,30.06,SW,221,0.0,-999.0,94,-99.99,,,-99.99,,2013-01-08 16:12:00,
2013-01-08 08:22:00,43.0,41.0,30.05,SW,221,0.0,-999.0,94,-99.99,,,-99.99,,2013-01-08 16:22:00,
2013-01-08 08:32:00,43.0,42.0,30.05,SW,221,0.0,-999.0,95,-99.99,,,-99.99,,2013-01-08 16:32:00,
2013-01-08 08:42:00,43.0,42.0,30.05,SW,221,0.0,-999.0,95,-99.99,,,-99.99,,2013-01-08 16:42:00,
2013-01-08 08:52:00,43.0,42.0,30.04,NW,315,0.0,-999.0,95,-99.99,,,-99.99,,2013-01-08 16:52:00,
2013-01-08 09:02:00,43.0,42.0,30.04,SW,233,0.0,-999.0,95,-99.99,,,-99.99,,2013-01-08 17:02:00,
2013-01-08 09:12:00,43.0,42.0,30.04,SW,233,0.0,-999.0,95,-99.99,,,-99.99,,2013-01-08 17:12:00,
2013-01-08 09:22:00,43.0,42.0,30.04,SW,233,0.0,-999.0,95,-99.99,,,-99.99,,2013-01-08 17:22:00,
2013-01-08 09:33:00,43.0,42.0,30.03,SW,233,0.0,-999.0,96,-99.99,,,-99.99,,2013-01-08 17:33:00,
2013-01-08 09:42:00,43.0,42.0,30.03,SW,233,0.0,-999.0,96,-99.99,,,-99.99,,2013-01-08 17:42:00,
2013-01-08 09:53:00,43.0,42.0,30.02,SW,232,0.0,-999.0,96,-99.99,,,-99.99,,2013-01-08 17:53:00,
2013-01-08 10:03:00,43.0,42.0,30.01,SW,233,0.0,-999.0,96,-99.99,,,-99.99,,2013-01-08 18:03:00,
2013-01-08 10:12:00,43.0,42.0,30.01,SW,233,0.0,-999.0,96,-99.99,,,-99.99,,2013-01-08 18:12:00,
2013-01-08 10:22:00,43.0,42.0,30.00,NNW,336,0.0,-999.0,96,-99.99,,,-99.99,,2013-01-08 18:22:00,
2013-01-08 10:32:00,43.0,42.0,29.99,NW,325,0.0,-999.0,96,-99.99,,,-99.99,,2013-01-08 18:32:00,
2013-01-08 10:43:00,43.0,42.0,29.99,NW,325,0.0,-999.0,96,-99.99,,,-99.99,,2013-01-08 18:43:00,
2013-01-08 10:53:00,43.0,42.0,29.98,NW,315,0.0,-999.0,96,-99.99,,,-99.99,,2013-01-08 18:53:00,
2013-01-08 11:02:00,43.0,42.0,29.97,NW,315,0.0,-999.0,97,-99.99,,,-99.99,,2013-01-08 19:02:00,
2013-01-08 11:11:00,43.0,42.0,29.97,NW,315,0.0,-999.0,97,-99.99,,,-99.99,,2013-01-08 19:11:00,
2013-01-08 11:22:00,43.0,42.0,29.96,WNW,303,0.0,-999.0,97,-99.99,,,-99.99,,2013-01-08 19:22:00,
2013-01-08 11:32:00,43.0,42.0,29.95,WNW,303,0.0,-999.0,97,-99.99,,,-99.99,,2013-01-08 19:32:00,
2013-01-08 11:42:00,43.0,42.0,29.95,WNW,303,0.0,-999.0,97,-99.99,,,-99.99,,2013-01-08 19:42:00,
2013-01-08 11:53:00,44.0,43.0,29.93,WNW,303,0.0,-999.0,97,-99.99,,,-99.99,,2013-01-08 19:53:00,
2013-01-08 12:02:00,44.0,43.0,29.93,WNW,303,0.0,-999.0,97,-99.99,,,-99.99,,2013-01-08 20:02:00,
2013-01-08 12:12:00,44.0,43.0,29.93,WNW,303,0.0,-999.0,97,-99.99,,,-99.99,,2013-01-08 20:12:00,
2013-01-08 12:22:00,44.0,43.0,29.92,SSE,155,0.0,-999.0,97,-99.99,,,-99.99,,2013-01-08 20:22:00,
2013-01-08 12:32:00,45.0,44.0,29.91,SSE,160,0.0,-999.0,97,-99.99,,,-99.99,,2013-01-08 20:32:00,
2013-01-08 12:42:00,45.0,44.0,29.91,SSE,160,0.0,-999.0,97,-99.99,,,-99.99,,2013-01-08 20:42:00,
2013-01-08 12:53:00,45.0,44.0,29.91,SSE,147,0.0,-999.0,97,-99.99,,,-99.99,,2013-01-08 20:53:00,
2013-01-08 13:02:00,45.0,44.0,29.90,SSE,147,0.0,-999.0,97,-99.99,,,-99.99,,2013-01-08 21:02:00,
2013-01-08 13:12:00,45.0,44.0,29.90,SSE,147,0.0,-999.0,97,-99.99,,,-99.99,,2013-01-08 21:12:00,
2013-01-08 13:22:00,47.0,46.0,29.89,SE,128,0.0,-999.0,98,-99.99,,,-99.99,,2013-01-08 21:22:00,
2013-01-08 13:32:00,47.0,46.0,29.88,SSE,162,0.0,-999.0,98,-99.99,,,-99.99,,2013-01-08 21:32:00,
2013-01-08 13:42:00,47.0,46.0,29.88,SSE,162,0.0,-999.0,98,-99.99,,,-99.99,,2013-01-08 21:42:00,
2013-01-08 13:53:00,48.0,47.0,29.87,SSW,205,0.0,-999.0,98,-99.99,,,-99.99,,2013-01-08 21:53:00,
2013-01-08 14:02:00,49.0,48.0,29.86,SSE,148,1.0,-999.0,98,-99.99,,,-99.99,,2013-01-08 22:02:00,
2013-01-08 14:12:00,49.0,48.0,29.86,SSE,148,1.0,-999.0,98,-99.99,,,-99.99,,2013-01-08 22:12:00,
2013-01-08 14:22:00,49.0,48.0,29.86,SSE,152,1.0,-999.0,98,-99.99,,,-99.99,,2013-01-08 22:22:00,
2013-01-08 14:32:00,49.0,48.0,29.86,SE,138,0.0,-999.0,98,-99.99,,,-99.99,,2013-01-08 22:32:00,
2013-01-08 14:42:00,49.0,48.0,29.86,SE,138,0.0,-999.0,98,-99.99,,,-99.99,,2013-01-08 22:42:00,
2013-01-08 14:53:00,49.0,48.0,29.86,SW,222,0.0,-999.0,98,-99.99,,,-99.99,,2013-01-08 22:53:00,
2013-01-08 15:02:00,49.0,48.0,29.85,SW,214,0.0,-999.0,98,-99.99,,,-99.99,,2013-01-08 23:02:00,
2013-01-08 15:12:00,49.0,48.0,29.85,SW,214,0.0,-999.0,98,-99.99,,,-99.99,,2013-01-08 23:12:00,
2013-01-08 15:22:00,50.0,49.0,29.86,SSE,161,0.0,-999.0,98,-99.99,,,-99.99,,2013-01-08 23:22:00,
2013-01-08 15:32:00,50.0,49.0,29.86,SSW,200,1.0,-999.0,98,-99.99,,,-99.99,,2013-01-08 23:32:00,
2013-01-08 15:42:00,50.0,49.0,29.86,SSW,200,1.0,-999.0,98,-99.99,,,-99.99,,2013-01-08 23:42:00,
2013-01-08 15:53:00,50.0,49.0,29.85,South,173,1.0,-999.0,98,-99.99,,,-99.99,,2013-01-08 23:53:00,
2013-01-08 16:02:00,50.0,49.0,29.85,South,184,0.0,-999.0,98,-99.99,,,-99.99,,2013-01-09 00:02:00,
2013-01-08 16:12:00,50.0,49.0,29.85,South,184,0.0,-999.0,98,-99.99,,,-99.99,,2013-01-09 00:12:00,
2013-01-08 16:22:00,50.0,49.0,29.83,WNW,286,0.0,-999.0,98,-99.99,,,-99.99,,2013-01-09 00:22:00,
2013-01-08 16:32:00,50.0,49.0,29.82,SSW,211,1.0,-999.0,98,-99.99,,,-99.99,,2013-01-09 00:32:00,
2013-01-08 16:42:00,50.0,49.0,29.82,SSW,211,1.0,-999.0,98,-99.99,,,-99.99,,2013-01-09 00:42:00,
2013-01-08 16:52:00,51.0,50.0,29.81,SW,227,1.0,-999.0,98,-99.99,,,-99.99,,2013-01-09 00:52:00,
2013-01-08 17:02:00,51.0,50.0,29.81,SE,144,1.0,-999.0,98,-99.99,,,-99.99,,2013-01-09 01:02:00,
2013-01-08 17:12:00,51.0,50.0,29.81,SE,144,1.0,-999.0,98,-99.99,,,-99.99,,2013-01-09 01:12:00,
2013-01-08 17:22:00,51.0,50.0,29.81,South,169,1.0,-999.0,98,-99.99,,,-99.99,,2013-01-09 01:22:00,
2013-01-08 17:32:00,51.0,50.0,29.80,SSW,202,2.0,-999.0,98,-99.99,,,-99.99,,2013-01-09 01:32:00,
2013-01-08 17:42:00,51.0,50.0,29.80,SSW,202,2.0,-999.0,98,-99.99,,,-99.99,,2013-01-09 01:42:00,
2013-01-08 17:52:00,51.0,50.0,29.79,SSW,208,3.0,-999.0,97,-99.99,,,-99.99,,2013-01-09 01:52:00,
2013-01-08 18:02:00,51.0,50.0,29.78,SW,219,2.0,-999.0,97,-99.99,,,-99.99,,2013-01-09 02:02:00,
2013-01-08 18:11:00,51.0,50.0,29.78,SW,219,2.0,-999.0,97,-99.99,,,-99.99,,2013-01-09 02:11:00,
2013-01-08 18:22:00,52.0,51.0,29.78,SSW,207,2.0,-999.0,96,-99.99,,,-99.99,,2013-01-09 02:22:00,
2013-01-08 18:32:00,52.0,51.0,29.77,SW,217,2.0,-999.0,96,-99.99,,,-99.99,,2013-01-09 02:32:00,
2013-01-08 18:42:00,52.0,51.0,29.77,SW,217,2.0,-999.0,96,-99.99,,,-99.99,,2013-01-09 02:42:00,
2013-01-08 18:52:00,52.0,50.0,29.76,SSW,209,3.0,-999.0,93,-99.99,,,-99.99,,2013-01-09 02:52:00,
2013-01-08 19:02:00,52.0,50.0,29.76,SSW,202,3.0,-999.0,92,-99.99,,,-99.99,,2013-01-09 03:02:00,
2013-01-08 19:11:00,52.0,50.0,29.76,SSW,202,3.0,-999.0,92,-99.99,,,-99.99,,2013-01-09 03:11:00,
2013-01-08 19:22:00,53.0,50.0,29.75,SSW,193,4.0,-999.0,90,-99.99,,,-99.99,,2013-01-09 03:22:00,
2013-01-08 19:32:00,53.0,50.0,29.75,SSW,207,4.0,-999.0,88,-99.99,,,-99.99,,2013-01-09 03:32:00,
2013-01-08 19:42:00,53.0,50.0,29.75,SSW,207,4.0,-999.0,88,-99.99,,,-99.99,,2013-01-09 03:42:00,
2013-01-08 19:52:00,54.0,50.0,29.74,South,188,4.0,-999.0,87,-99.99,,,-99.99,,2013-01-09 03:52:00,
2013-01-08 20:02:00,54.0,50.0,29.74,WSW,245,3.0,-999.0,87,-99.99,,,-99.99,,2013-01-09 04:02:00,
2013-01-08 20:12:00,54.0,50.0,29.74,WSW,245,3.0,-999.0,87,-99.99,,,-99.99,,2013-01-09 04:12:00,
2013-01-08 20:22:00,54.0,50.0,29.75,SW,219,3.0,-999.0,86,-99.99,,,-99.99,,2013-01-09 04:22:00,
2013-01-08 20:32:00,54.0,50.0,29.75,SSW,212,3.0,-999.0,85,-99.99,,,-99.99,,2013-01-09 04:32:00,
2013-01-08 20:42:00,54.0,50.0,29.75,SSW,212,3.0,-999.0,85,-99.99,,,-99.99,,2013-01-09 04:42:00,
2013-01-08 20:52:00,54.0,50.0,29.74,SSW,211,4.0,-999.0,86,-99.99,,,-99.99,,2013-01-09 04:52:00,
2013-01-08 21:03:00,53.0,49.0,29.74,SSW,212,3.0,-999.0,86,-99.99,,,-99.99,,2013-01-09 05:03:00,
2013-01-08 21:12:00,53.0,49.0,29.74,SSW,212,3.0,-999.0,86,-99.99,,,-99.99,,2013-01-09 05:12:00,
2013-01-08 21:22:00,53.0,49.0,29.74,SSW,206,3.0,-999.0,87,-99.99,,,-99.99,,2013-01-09 05:22:00,
2013-01-08 21:32:00,53.0,50.0,29.74,SSW,203,3.0,-999.0,88,-99.99,,,-99.99,,2013-01-09 05:32:00,
2013-01-08 21:42:00,53.0,50.0,29.74,SSW,203,3.0,-999.0,88,-99.99,,,-99.99,,2013-01-09 05:42:00,
2013-01-08 21:52:00,53.0,50.0,29.74,SSW,197,3.0,-999.0,89,-99.99,,,-99.99,,2013-01-09 05:52:00,
2013-01-08 22:02:00,52.0,49.0,29.74,SSW,206,3.0,-999.0,90,-99.99,,,-99.99,,2013-01-09 06:02:00,
2013-01-08 22:11:00,52.0,49.0,29.74,SSW,206,3.0,-999.0,90,-99.99,,,-99.99,,2013-01-09 06:11:00,
2013-01-08 22:22:00,52.0,50.0,29.74,SSW,207,2.0,-999.0,92,-99.99,,,-99.99,,2013-01-09 06:22:00,
2013-01-08 22:32:00,51.0,49.0,29.74,South,173,2.0,-999.0,93,-99.99,,,-99.99,,2013-01-09 06:32:00,
2013-01-08 22:42:00,51.0,49.0,29.74,South,173,2.0,-999.0,93,-99.99,,,-99.99,,2013-01-09 06:42:00,
2013-01-08 22:52:00,51.0,49.0,29.74,SSW,206,2.0,-999.0,94,-99.99,,,-99.99,,2013-01-09 06:52:00,
2013-01-08 23:02:00,51.0,50.0,29.74,South,173,2.0,-999.0,95,-99.99,,,-99.99,,2013-01-09 07:02:00,
2013-01-08 23:11:00,51.0,50.0,29.74,South,173,2.0,-999.0,95,-99.99,,,-99.99,,2013-01-09 07:11:00,
2013-01-08 23:22:00,51.0,50.0,29.74,SSE,167,2.0,-999.0,95,-99.99,,,-99.99,,2013-01-09 07:22:00,
2013-01-08 23:32:00,51.0,50.0,29.74,SSW,196,2.0,-999.0,96,-99.99,,,-99.99,,2013-01-09 07:32:00,
2013-01-08 23:42:00,51.0,50.0,29.74,SSW,196,2.0,-999.0,96,-99.99,,,-99.99,,2013-01-09 07:42:00,
2013-01-08 23:52:00,50.0,49.0,29.74,SSW,193,1.0,-999.0,96,-99.99,,,-99.99,,2013-01-09 07:52:00,